Lid_Strength_Index
-1 1 4 6 9 9 9 7 5 6 6 6 5 5 5 5 7 9 1 0 -0 -0 -1 -1 -1 -1 -1 -1 -1 -1 -1 -1 -1 -1 -1 -1 -1 -1 -1 -1 -1 -1 -1 -1 -1 -1 -1 -1 -1
-1 3 4 7 11 11 9 7 6 5 4 4 5 6 5 5 3 3 2 0 -0 -0 -1 -1 -1 -1 -1 -1 -1 -1 -1 -1 -1 -1 -1 -1 -1 -1 -1 -1 -1 -1 -1 -1 -1 -1 -1 -1 -1
1 3 6 8 10 12 10 7 6 4 4 4 4 4 5 5 3 2 1 0 -0 -0 -1 -1 -1 -1 -1 -1 -1 -1 -1 -1 -1 -1 -1 -1 -1 -1 -1 -1 -1 -1 -1 -1 -1 -1 -1 -1 -1
3 4 5 9 10 9 9 7 7 6 4 3 3 5 3 2 3 1 0 -0 0 -0 -1 -1 -1 -1 -1 -1 -1 -1 -1 -1 -1 -1 -1 -1 -1 -1 -1 -1 -1 -1 -1 -1 -1 -1 -1 -1 -1
4 5 8 9 9 7 7 7 7 7 6 4 4 5 4 2 1 1 0 0 0 -0 -1 -1 -1 -1 -1 -1 -1 -1 -1 -1 -1 -1 -1 -1 -1 -1 -1 -1 -1 -1 -1 -1 -1 -1 -1 -1 -1
6 6 10 10 9 7 6 6 6 7 6 5 6 4 3 2 2 1 0 0 -0 0 -0 -1 -1 -1 -1 -1 -1 -1 -1 -1 -1 -1 -1 -1 -1 -1 -1 -1 -1 -1 -1 -1 -1 -1 -1 -1 -1
6 8 10 9 8 8 7 5 6 6 7 6 5 7 3 3 1 1 0 -0 -0 -0 -0 -0 -1 -1 -1 -1 -1 -1 -1 -1 -1 -1 -1 -1 -1 -1 -1 -1 -1 -1 -1 -1 -1 -1 -1 -1 -1
5 6 9 8 9 9 6 6 5 6 6 6 5 8 6 2 1 1 0 0 0 -0 -0 -0 -1 -1 -1 -1 -1 -1 -1 -1 -1 -1 -1 -1 -1 -1 -1 -1 -1 -1 -1 -1 -1 -1 -1 -1 -1
4 8 10 9 8 8 5 7 5 5 5 5 6 7 4 2 1 1 2 1 1 1 0 -0 -0 -1 -1 -1 -1 -1 -1 -1 -1 -1 -1 -1 -2 -2 -2 -2 -1 -1 -1 -1 -1 -1 -1 -1 -2
7 9 9 7 6 7 6 6 6 6 6 6 6 6 5 1 2 3 3 3 2 1 1 -0 -0 -0 -1 -1 -1 -1 -1 -2 -2 -2 -2 -2 -2 -2 -2 -2 -1 -1 -1 -1 -1 -1 -1 -1 -2
7 9 7 6 5 5 6 6 6 7 7 5 5 5 6 2 2 2 2 2 2 1 1 0 -0 -1 -1 -1 -1 -1 -1 -1 -2 -2 -2 -2 -1 -2 -1 -1 -2 -2 -1 -2 -1 -1 -2 -1 -1
8 7 7 6 5 6 7 5 6 6 6 4 4 3 5 4 3 2 2 2 2 1 1 0 -0 -0 -1 -1 -1 -1 -1 -1 -1 -1 -2 -1 -1 -1 -1 -1 -1 -2 -2 -2 -2 -2 -2 -1 -1
6 7 7 6 6 6 6 6 6 6 5 3 3 3 3 5 2 2 2 1 1 2 1 0 -0 -0 -1 -1 -1 -1 -1 -1 -1 -1 -2 -1 -1 -1 -1 -1 -1 -1 -2 -1 -1 -2 -2 -2 -2
5 5 6 6 7 7 7 7 6 6 5 5 4 4 3 3 4 2 2 2 2 1 1 0 0 -0 -1 -0 -1 -1 -1 -1 -1 -1 -1 -2 -1 -1 -1 -1 -1 -1 -1 -2 -2 -2 -1 -1 -1
5 7 6 5 6 7 7 9 8 6 5 5 4 4 3 2 3 3 2 2 2 1 1 1 0 -0 -0 -0 -1 -1 -1 -1 -1 -1 -2 -2 -2 -2 -2 -1 -1 -1 -2 -1 -1 -1 -2 -1 -1
7 6 9 6 6 6 7 11 8 5 5 6 5 4 3 3 2 4 4 1 2 1 1 1 0 -0 -0 -1 -0 -0 -1 -1 -1 -1 -1 -2 -2 -2 -1 -1 -1 -1 -1 -1 -1 -1 -1 -1 0
7 10 9 8 5 6 7 10 7 5 5 6 6 5 4 4 3 3 3 1 1 1 1 1 0 0 -0 -0 -1 -1 -1 -1 -1 -1 -1 -1 -1 -1 -1 -1 -1 -1 -1 -1 -1 -0 -1 1 1
10 10 9 9 7 6 7 9 7 5 5 6 5 5 4 4 3 2 1 1 1 1 1 1 0 0 -0 -0 -0 -0 -0 -0 -1 -1 -1 -1 -1 -2 -1 -1 -1 -1 -1 -0 -1 -0 -0 0 1
8 9 9 8 6 7 8 7 7 6 6 6 5 5 4 4 2 2 1 1 2 1 1 1 1 0 1 1 1 1 1 0 -0 -1 -1 -1 -1 -1 -1 -1 -1 -1 -0 -0 -0 0 1 1 0
8 10 10 8 7 7 8 8 7 6 6 5 5 5 4 3 3 2 2 2 2 2 1 1 1 1 0 0 0 0 0 0 -0 -1 -1 -1 -1 -1 -1 -1 -0 -0 0 0 0 0 1 1 0
9 10 10 10 8 7 8 9 8 7 7 6 5 4 4 4 3 2 3 3 2 2 2 1 1 1 0 -0 0 0 -0 0 1 0 0 -1 -1 -1 -1 -1 -1 1 2 1 1 1 1 2 1
12 8 9 10 11 14 8 14 9 7 8 7 6 5 5 4 3 3 3 3 3 2 1 1 1 1 0 -0 0 0 1 2 2 2 1 -0 -0 -0 0 1 1 -1 0 1 2 1 0 0 2
11 8 9 10 12 12 11 12 10 7 9 8 7 5 5 4 3 3 3 3 2 2 2 1 1 1 0 -0 -0 1 2 2 2 2 2 1 0 -0 -0 -1 -1 -1 2 2 3 2 2 2 2
7 10 10 10 12 18 12 12 11 9 8 8 6 5 5 4 3 2 3 2 2 2 1 1 1 1 0 0 0 1 2 2 3 2 1 1 1 1 0 -0 -0 2 1 2 2 2 2 2 1
10 14 18 19 19 17 10 12 10 7 7 6 6 5 5 4 3 3 4 3 3 2 2 2 2 2 1 1 1 1 1 1 1 1 2 2 3 1 -0 1 1 1 1 2 2 2 1 1 0
12 12 16 22 18 14 10 13 10 6 5 5 5 4 4 3 3 3 3 3 3 2 2 2 2 2 1 1 1 1 0 1 1 1 1 1 1 1 2 1 0 1 3 2 2 2 1 0 0
14 16 11 16 14 15 12 10 7 6 6 6 5 4 4 3 3 3 3 3 3 3 3 2 2 2 1 1 1 1 0 1 1 0 0 1 2 2 2 2 2 3 2 1 1 1 1 0 0
11 10 16 15 19 19 13 12 11 8 7 7 6 5 4 3 3 4 3 3 3 3 2 2 2 2 1 1 1 1 2 2 1 0 1 -0 -0 0 2 3 3 2 2 1 1 1 1 1 1
13 15 13 12 13 18 16 13 7 7 6 7 5 5 4 3 4 4 4 4 3 3 3 2 2 2 2 1 3 3 2 1 1 1 0 0 2 2 3 3 3 2 2 2 1 1 1 1 1
9 11 12 17 16 13 14 16 7 6 5 5 5 4 4 3 4 5 5 4 4 3 3 3 2 2 3 4 3 2 1 1 1 2 1 1 2 3 3 3 2 2 2 2 1 2 1 1 1